#timestamp,LO_Frequency,Hit,StdDev 
1695513615.2,286046998.5,N
1695513635.9,286046998.3,N
1695513655.7,286046998.1,N
1695513675.6,286047000.7,N
1695513695.4,286046998.1,N
1695513715.3,286046998.7,N
1695513735.1,286046999.4,N
1695513736.0,286046999.4,N
1695513755.8,286046998.3,N
1695513775.7,286046998.1,N
1695513795.5,286046998.9,N
1695513815.3,286046998.5,N
1695513835.2,286046998.4,N
1695513855.7,286047000.6,N
1695513875.6,286047000.8,N
1695513895.4,286047000.9,N
1695513915.2,286046999.9,N
1695513935.1,286047000.0,N
1695513936.0,286047000.0,N
1695513955.8,286047000.6,N
1695513975.7,286046999.9,N
1695513995.5,286047000.7,N
1695514015.3,286047001.2,N
1695514035.2,286047000.4,N
1695514055.0,286047000.4,N
1695514055.9,286047000.4,N
1695514075.7,286047000.3,N
1695514095.6,286047001.0,N
1695514115.4,286047000.5,N
1695514135.3,286046998.2,N
1695514155.1,286047001.1,N
1695514175.2,286047000.5,N
1695514195.0,286047000.4,N
1695514195.9,286047000.4,N
1695514215.8,286047002.6,N
1695514235.6,286047002.6,N
1695514255.4,286047002.0,N
1695514275.3,286047001.9,N
1695514295.1,286047001.9,N
1695514315.8,286047001.8,N
1695514335.7,286047001.9,N
1695514355.5,286047001.5,N
1695514375.4,286047001.5,N
1695514395.3,286047001.8,N
1695514415.2,286047004.4,Y
1695514435.0,286047000.3,P
1695514435.9,286047000.3,N
1695514455.7,286047002.7,P
1695514475.6,286047000.0,N
1695514495.4,286047002.6,N
1695514515.3,286047002.4,N
1695514535.1,286046999.9,N
1695514555.8,286047002.5,N
1695514575.7,286047002.4,N
1695514595.5,286047002.0,N
1695514615.4,286047002.2,N
1695514635.2,286047001.8,N
1695514655.0,286047001.8,N
1695514655.9,286047001.8,N
1695514675.8,286047001.5,N
1695514695.6,286047004.2,Y
1695514715.4,286047002.1,P
1695514735.3,286047002.6,P
1695514755.1,286047000.1,N
1695514775.9,286047002.6,N
1695514795.7,286046999.8,N
1695514815.5,286047000.2,N
1695514835.4,286047000.3,N
1695514855.2,286047000.4,N
1695514875.0,286046999.7,N
1695514876.0,286046999.7,N
1695514895.8,286047002.8,N
1695514915.6,286047002.4,N
1695514935.5,286047000.3,N
1695514955.3,286047002.8,N
1695514975.2,286047002.4,N
1695514995.9,286047000.0,N
1695515015.7,286047000.3,N
1695515035.6,286046999.9,N
1695515055.4,286046999.9,N
1695515075.3,286047002.6,N
1695515095.1,286047002.0,N
1695515096.0,286047002.0,N
1695515115.8,286047002.7,N
1695515135.7,286047002.4,N
1695515155.5,286047002.4,N
1695515175.3,286047000.0,N
1695515195.2,286047000.0,N
1695515215.0,286047000.4,N
1695515215.9,286047000.4,N
1695515235.8,286047000.6,N
1695515255.6,286047000.0,N
1695515275.4,286047000.2,N
1695515295.3,286047000.0,N
1695515315.1,286047000.9,N
1695515335.9,286047000.5,N
1695515355.7,286046999.8,N
1695515375.5,286047000.3,N
1695515395.4,286047000.9,N
1695515415.2,286047000.2,N
1695515435.0,286047000.0,N
1695515435.9,286047000.0,N
1695515455.8,286047000.1,N
1695515475.6,286047000.6,N
1695515495.5,286047000.0,N
1695515515.3,286046998.1,N
1695515535.1,286047000.6,N
1695515555.9,286047000.7,N
1695515575.7,286047000.6,N
1695515595.5,286047000.7,N
1695515615.4,286047001.0,N
1695515635.2,286047000.4,N
1695515655.1,286046999.9,N
1695515656.0,286046999.9,N
1695515675.8,286047000.1,N
1695515695.6,286047002.4,Y
1695515715.5,286047000.2,P
1695515735.3,286047002.4,P
1695515755.2,286047000.2,N
1695515775.9,286047002.4,N
1695515795.7,286047002.1,N
1695515815.6,286047001.6,N
1695515835.4,286047002.4,N
1695515855.3,286047002.8,N
1695515875.1,286046999.8,N
1695515876.0,286046999.8,N
1695515895.8,286046999.7,N
1695515915.7,286047002.4,N
1695515935.5,286047002.4,N
1695515955.3,286047002.7,N
1695515975.2,286047001.6,N
1695515995.0,286047001.5,N
1695515995.9,286047001.5,N
1695516015.8,286047001.7,N
1695516035.6,286047001.5,N
1695516055.4,286047001.7,N
1695516075.3,286047001.6,N
1695516095.1,286047001.5,N
1695516115.8,286047001.8,N
1695516135.7,286047002.0,N
1695516155.5,286047001.6,N
1695516175.4,286047001.8,N
1695516195.2,286047004.0,Y
1695516215.0,286047002.1,P
1695516215.9,286047002.1,P
1695516235.8,286047001.9,P
1695516255.6,286047001.4,Y
1695516275.4,286046999.7,P
1695516295.3,286047000.5,N
1695516315.1,286047000.5,N
1695516335.9,286047000.7,N
1695516355.7,286046998.1,N
1695516375.5,286046998.1,N
1695516395.4,286046998.8,N
1695516415.2,286046998.6,N
1695516435.0,286046998.8,N
1695516436.0,286046998.8,N
1695516455.8,286046998.6,N
1695516475.6,286046998.6,N
1695516495.5,286046998.4,N
1695516515.3,286046998.8,N
1695516535.1,286046998.7,N
1695516555.9,286046998.1,N
1695516575.7,286046998.7,N
1695516595.5,286046998.3,N
1695516615.4,286046999.5,N
1695516635.2,286046999.1,N
1695516655.1,286046999.3,N
1695516656.0,286046999.3,N
1695516675.8,286046999.2,N
1695516695.6,286046998.3,N
1695516715.5,286046998.5,N
1695516735.3,286046998.3,N
1695516755.1,286046998.7,N
1695516775.9,286046998.2,N
1695516795.7,286046998.8,N
1695516815.6,286046998.9,N
1695516835.4,286046998.4,N
1695516855.2,286046998.7,N
1695516875.1,286046998.6,N
1695516876.0,286046998.6,N
1695516895.8,286047000.7,N
1695516915.7,286047000.7,N
1695516935.5,286046998.6,N
1695516955.3,286046998.3,N
1695516975.2,286046998.8,N
1695516995.0,286047001.1,N
1695516995.9,286047001.1,N
1695517015.8,286047001.1,N
1695517035.6,286046998.5,N
1695517055.4,286046998.1,N
1695517075.3,286046998.6,N
1695517095.1,286047001.0,N
1695517115.8,286047000.8,N
1695517135.7,286047000.9,N
1695517155.5,286047000.8,N
1695517175.4,286047000.9,N
1695517195.2,286047000.1,N
